Flag for Germany Weather past 2 weeks in Bad Nauheim, Hesse, Germany

Now
67 °F

Scattered clouds.


Feels Like: 67 °F
Forecast: 49 / 67 °F
Wind: 5 mph from South

Location: Giessen

Current Time: Sep 2, 2015 at 5:24:47 PM

Latest Report: Sep 2, 2015 at 5:00 PM


Visibility: 28 mi

Pressure: 29.98 "Hg

Humidity: 52%

Dew point: 49 °F

Location of Bad NauheimLocation

Historic Weather in Bad Nauheim — Graph

°F

Bad Nauheim temperature yesterday

Maximum temperature yesterday: 72 °F (at 1:00 AM)
Minimum temperature yesterday: 54 °F (at 11:00 PM)
Average temperature yesterday: 64 °F

Past Weeks' High & Low Weather Summary

 TemperatureHumidityPressure
High90 °F (Aug 31, 4:00 PM)100% (Aug 21, 8:00 AM)30.30 "Hg (Aug 21, 8:00 AM)
Low48 °F (Sep 2, 7:00 AM)24% (Aug 31, 3:00 PM)29.65 "Hg (Aug 24, 5:00 PM)
Average65 °F72%30.00 "Hg
* Reported Aug 18 4:00 PM — Sep 2 4:00 PM, Bad Nauheim, Weather by CustomWeather, © 2015

Note: Actual official high and low records may vary slightly from our data, if they occured in-between our weather recording intervals... More about our weather records

Advertising

Bad Nauheim weather history for previous 24 hours

 ConditionsComfort  
Time TempWeatherWind HumidityBarometerVisibility
4:00 PM
Wed, Sep 2
67 °FPartly sunny.5 mph48%29.99 "Hg25 mi
3:00 PM66 °FScattered clouds.No wind56%30.00 "Hg31 mi
2:00 PM65 °FScattered clouds.3 mph61%30.02 "Hg19 mi
1:00 PM63 °FOvercast.3 mph65%30.04 "Hg25 mi
12:00 PM61 °FScattered clouds.2 mph71%30.06 "Hg14 mi
11:00 AM56 °FScattered clouds.1 mph82%30.07 "Hg9 mi
10:00 AM53 °FLow clouds.No wind94%30.07 "Hg4 mi
9:00 AM51 °FLow clouds.No wind100%30.07 "Hg1 mi
8:00 AM49 °FSunny.No wind99%30.09 "Hg3 mi
7:00 AM48 °FPassing clouds.2 mph100%30.08 "Hg0 mi
6:00 AM51 °FPassing clouds.2 mph100%30.07 "Hg0 mi
5:00 AM51 °FClear.1 mph100%30.08 "Hg1 mi
4:00 AM52 °FFog.2 mph97%30.07 "Hg3 mi
3:00 AM53 °FFog.2 mph97%30.07 "Hg4 mi
2:00 AM52 °FPassing clouds.2 mph97%30.06 "Hg5 mi
1:00 AM54 °FPassing clouds.1 mph96%30.05 "Hg9 mi
11:00 PM
Tue, Sep 1
54 °FClear.2 mph98%30.04 "Hg7 mi
10:00 PM55 °FClear.2 mph96%30.02 "Hg17 mi
9:00 PM58 °FPassing clouds.2 mph91%30.00 "Hg40 mi
8:00 PM61 °FOvercast.2 mph91%29.97 "Hg34 mi
7:00 PM61 °FLight freezing rain. Low clouds.3 mph92%29.95 "Hg3 mi
6:00 PM63 °FLow clouds.5 mph89%29.92 "Hg37 mi
5:00 PM63 °FOvercast.3 mph88%29.90 "Hg43 mi
Weather by CustomWeather, © 2015

See weather overviewHow to use our weather pages